Location: Gipe Farm
(40.9466°N, 95.5370°W)
Time: 05:50:26
(UTC-06:00)

Cosmos 1842 - Visible Passes

Search period start: 11 December 2016 00:00
Search period end: 21 December 2016 00:00
Orbit: 525 x 541 km, 82.5° (Epoch: 10 December)

Date Brightness Start Highest point End Pass type
(mag) Time Alt. Az. Time Alt. Az. Time Alt. Az.
16 Dec 3.2 07:04:16 10° N 07:08:10 76° W 07:12:01 10° S visible
17 Dec 3.2 06:54:38 10° N 06:58:32 80° W 07:02:24 10° S visible
18 Dec 3.2 06:45:01 10° N 06:48:55 85° W 06:52:47 10° S visible
19 Dec 3.2 06:35:23 10° N 06:39:17 89° W 06:43:09 10° S visible
19 Dec 5.7 18:52:38 10° SSE 18:52:55 12° SSE 18:52:55 12° SSE visible
20 Dec 3.2 06:25:45 10° N 06:29:39 87° E 06:33:32 10° S visible
20 Dec 5.0 18:43:04 10° SSE 18:44:26 19° SE 18:44:26 19° SE visible
